Content
SEND FEEDBACK

Daily
Averages
Monthly
Summary
United States of America

BUTLER, GEORGIA


Home > North America > United States > Georgia
Elevation: 65 feet     Latitude: 32 33N     Longitude: 084 14W

WEATHER
 
SELECT A DAY
Number of Records: 342,200;   Date Range: 10/4/00 - 9/30/14
 
SHARE

PRINT THIS DATA

[ ← Previous Day ]
WEATHER ALMANAC - JANUARY 22, 2013
[ Next Day → ]
[ °C ]   °F
Weather ElementAverageHighLow
Temperature39.3 °F48.2 °F (2:35 pm)32 °F (6:15 am)
Dewpoint24 °F26.6 °F (12:35 am)19.4 °F (8:55 am)
Humidity55.2 %70 % (8:55 pm)40 % (1:35 pm)
Barometer30.27 in30.33 in (10:35 am)30.17 in (1:35 am)
Wind Speed6.4 mph15 mph (1:55 pm)
Wind Gust20.7 mph (12:15 pm)
Weather ElementAverage
Visibility10 mi
Wind DirectionWNW (296.4 °)

Weather ElementTotal
Precipitation---
Heating Degree Days24.9 (Base 65)
Averaged from 70 records on January 22, 2013
WEATHER CONDITIONS BREAKOUT
WIND DIRECTION BREAKOUT
WEATHER BY HOUR - JANUARY 22, 2013
[ °C ]   °F
Local TimeTemperatureDewpointHumidityBarometerVisibilityWind DirectionWind SpeedGust SpeedPrecipitationEventsConditions
12:35 AM41.0 °F26.6 °F57 %30.18 in10.0 miNNW (330°)8.1 mphClear
12:55 AM41.0 °F26.6 °F57 %30.18 in10.0 miNNW (340°)6.9 mphClear
1:15 AM39.2 °F24.8 °F56 %30.18 in10.0 miNNW (330°)5.8 mphClear
1:35 AM37.4 °F24.8 °F60 %30.17 in10.0 miNW (320°)5.8 mphClear
1:55 AM37.4 °F24.8 °F60 %30.18 in10.0 miNNW (330°)4.6 mphClear
2:15 AM37.4 °F23.0 °F56 %30.18 in10.0 miNNW (330°)6.9 mphClear
2:55 AM37.4 °F23.0 °F56 %30.18 in10.0 miNNW (330°)5.8 mphClear
3:15 AM35.6 °F23.0 °F60 %30.18 in10.0 miNNW (340°)4.6 mphClear
3:35 AM35.6 °F23.0 °F60 %30.18 in10.0 miNW (320°)6.9 mphClear
3:55 AM35.6 °F23.0 °F60 %30.19 in10.0 miNW (320°)6.9 mphClear
4:15 AM35.6 °F23.0 °F60 %30.18 in10.0 miNNW (330°)8.1 mphClear
4:35 AM35.6 °F23.0 °F60 %30.19 in10.0 miNW (320°)6.9 mphClear
4:55 AM33.8 °F23.0 °F65 %30.19 in10.0 miNNW (330°)8.1 mphClear
5:15 AM33.8 °F23.0 °F65 %30.19 in10.0 miNNW (330°)8.1 mphClear
5:35 AM33.8 °F23.0 °F65 %30.20 in10.0 miNNW (330°)6.9 mphClear
5:55 AM33.8 °F23.0 °F65 %30.21 in10.0 miNNW (340°)6.9 mphClear
6:15 AM32.0 °F23.0 °F69 %30.22 in10.0 miNNW (340°)6.9 mphClear
6:35 AM32.0 °F23.0 °F69 %30.23 in10.0 miNNW (340°)5.8 mphClear
6:55 AM32.0 °F23.0 °F69 %30.23 in10.0 miNNW (340°)5.8 mphClear
7:15 AM32.0 °F23.0 °F69 %30.25 in10.0 miNNW (340°)5.8 mphClear
7:35 AM32.0 °F21.2 °F64 %30.26 in10.0 miNNW (330°)5.8 mphClear
7:55 AM32.0 °F21.2 °F64 %30.27 in10.0 miNNW (340°)6.9 mphClear
8:15 AM32.0 °F21.2 °F64 %30.28 in10.0 miNNW (340°)5.8 mphClear
8:35 AM32.0 °F21.2 °F64 %30.28 in10.0 miNNW (340°)8.1 mphClear
8:55 AM32.0 °F19.4 °F60 %30.29 in10.0 miNNW (340°)8.1 mphClear
9:15 AM33.8 °F19.4 °F56 %30.30 in10.0 miNW (320°)9.2 mphClear
9:35 AM33.8 °F19.4 °F56 %30.30 in10.0 miNNW (330°)6.9 mphClear
9:55 AM35.6 °F19.4 °F52 %30.31 in10.0 miNNW (330°)9.2 mphClear
10:15 AM37.4 °F21.2 °F52 %30.32 in10.0 miNNW (330°)8.1 mphClear
10:35 AM37.4 °F21.2 °F52 %30.33 in10.0 miNNW (340°)6.9 mphClear
10:55 AM39.2 °F21.2 °F49 %30.33 in10.0 miNNW (340°)9.2 mphClear
11:15 AM41.0 °F21.2 °F45 %30.33 in10.0 miNW (320°)11.5 mph16.1 mphClear
11:35 AM42.8 °F23.0 °F46 %30.33 in10.0 miNorth (350°)9.2 mph16.1 mphClear
11:55 AM42.8 °F21.2 °F42 %30.32 in10.0 miNorth (350°)9.2 mphClear
12:15 PM42.8 °F23.0 °F46 %30.31 in10.0 miNorth (350°)10.4 mph20.7 mphClear
12:35 PM44.6 °F23.0 °F43 %30.31 in10.0 miNorth (350°)13.8 mph20.7 mphClear
12:55 PM44.6 °F23.0 °F43 %30.30 in10.0 miNNW (330°)11.5 mph18.4 mphClear
1:15 PM44.6 °F23.0 °F43 %30.29 in10.0 miNNW (330°)11.5 mph17.3 mphClear
1:35 PM46.4 °F23.0 °F40 %30.29 in10.0 miNW (310°)10.4 mph17.3 mphClear
1:55 PM46.4 °F24.8 °F43 %30.28 in10.0 miNW (310°)15.0 mph19.6 mphClear
2:15 PM46.4 °F24.8 °F43 %30.28 in10.0 miNNW (330°)10.4 mph20.7 mphClear
2:35 PM48.2 °F26.6 °F43 %30.27 in10.0 miNW (320°)8.1 mphClear
2:55 PM48.2 °F26.6 °F43 %30.27 in10.0 miNW (310°)6.9 mphClear
3:15 PM48.2 °F24.8 °F40 %30.27 in10.0 miNW (310°)8.1 mphClear
3:35 PM48.2 °F26.6 °F43 %30.27 in10.0 miNNW (330°)5.8 mphClear
3:55 PM48.2 °F26.6 °F43 %30.27 in10.0 miNW (310°)10.4 mphClear
4:15 PM48.2 °F26.6 °F43 %30.27 in10.0 miNW (320°)8.1 mphClear
4:35 PM48.2 °F26.6 °F43 %30.28 in10.0 miNW (310°)6.9 mphClear
4:55 PM48.2 °F26.6 °F43 %30.28 in10.0 miNNW (330°)6.9 mphClear
5:15 PM46.4 °F26.6 °F46 %30.28 in10.0 miNNW (330°)6.9 mphClear
5:35 PM46.4 °F26.6 °F46 %30.28 in10.0 miCalmClear
5:55 PM44.6 °F26.6 °F49 %30.28 in10.0 miNW (310°)3.5 mphClear
6:15 PM44.6 °F26.6 °F49 %30.28 in10.0 miNW (320°)3.5 mphClear
6:35 PM42.8 °F26.6 °F53 %30.29 in10.0 miNW (310°)3.5 mphClear
6:55 PM42.8 °F26.6 °F53 %30.30 in10.0 miCalmClear
7:15 PM41.0 °F26.6 °F57 %30.30 in10.0 miCalmClear
7:35 PM41.0 °F26.6 °F57 %30.30 in10.0 miCalmClear
7:55 PM41.0 °F26.6 °F57 %30.30 in10.0 miCalmClear
8:15 PM37.4 °F26.6 °F65 %30.30 in10.0 miCalmClear
8:35 PM39.2 °F26.6 °F61 %30.31 in10.0 miNW (320°)3.5 mphClear
8:55 PM35.6 °F26.6 °F70 %30.31 in10.0 miNNW (330°)4.6 mphClear
9:15 PM37.4 °F26.6 °F65 %30.32 in10.0 miNNW (340°)4.6 mphClear
9:35 PM37.4 °F26.6 °F65 %30.32 in10.0 miNNW (330°)4.6 mphClear
9:55 PM37.4 °F24.8 °F60 %30.31 in10.0 miNNW (330°)3.5 mphClear
10:15 PM37.4 °F24.8 °F60 %30.32 in10.0 miNW (320°)3.5 mphClear
10:35 PM37.4 °F24.8 °F60 %30.32 in10.0 miNNW (330°)4.6 mphClear
10:55 PM35.6 °F24.8 °F65 %30.32 in10.0 miNW (320°)4.6 mphClear
11:15 PM35.6 °F23.0 °F60 %30.32 in10.0 miNNW (340°)4.6 mphClear
11:35 PM35.6 °F23.0 °F60 %30.32 in10.0 miNNW (340°)3.5 mphClear
11:55 PM35.6 °F23.0 °F60 %30.32 in10.0 miCalmClear
Hourly data recorded from KOPN, located miles away from Butler, Georgia







STORIES FROM OUR PARTNERS